Satellite: SO-50
Catalog number: 27607
Epoch time:      10301.61448115
Element set:     304
Inclination:      064.5581 deg
RA of node:       311.2303 deg
Eccentricity:    0.0045303
Arg of perigee:   021.9147 deg
Mean anomaly:     338.3881 deg
Mean motion:   14.71594408 rev/day
Decay rate:        8.3e-07 rev/day^2
Epoch rev:           42201
Checksum:              258

Satellite: CO-55
Catalog number: 27844
Epoch time:      10301.55293538
Element set:     966
Inclination:      098.7101 deg
RA of node:       308.6233 deg
Eccentricity:    0.0009948
Arg of perigee:   142.0283 deg
Mean anomaly:     218.1605 deg
Mean motion:   14.20740927 rev/day
Decay rate:       1.12e-06 rev/day^2
Epoch rev:           38002
Checksum:              288

Satellite: CO-57
Catalog number: 27848
Epoch time:      10300.75686843
Element set:     913
Inclination:      098.7155 deg
RA of node:       306.9596 deg
Eccentricity:    0.0009645
Arg of perigee:   148.6384 deg
Mean anomaly:     211.5372 deg
Mean motion:   14.20530353 rev/day
Decay rate:       1.18e-06 rev/day^2
Epoch rev:           37986
Checksum:              336

Satellite: AO-51
Catalog number: 28375
Epoch time:      10300.94023427
Element set:    0811
Inclination:      098.0736 deg
RA of node:       286.9628 deg
Eccentricity:    0.0085106
Arg of perigee:   054.4338 deg
Mean anomaly:     306.4756 deg
Mean motion:   14.40705608 rev/day
Decay rate:        5.0e-07 rev/day^2
Epoch rev:           33262
Checksum:              295

Satellite: GENESAT1
Catalog number: 29655
Epoch time:      10216.61700559
Element set:     226
Inclination:      040.0059 deg
RA of node:       067.3006 deg
Eccentricity:    0.0005079
Arg of perigee:   297.8744 deg
Mean anomaly:     064.7087 deg
Mean motion:   16.44862838 rev/day
Decay rate:  1.0637092e-01 rev/day^2
Epoch rev:           20777
Checksum:              320

Satellite: CP3
Catalog number: 31129
Epoch time:      10300.63669984
Element set:    0709
Inclination:      097.9263 deg
RA of node:       333.0318 deg
Eccentricity:    0.0102126
Arg of perigee:   182.3873 deg
Mean anomaly:     177.6838 deg
Mean motion:   14.52322383 rev/day
Decay rate:        1.5e-07 rev/day^2
Epoch rev:           18708
Checksum:              304

Satellite: CO-65
Catalog number: 32785
Epoch time:      10301.67366295
Element set:     821
Inclination:      097.8809 deg
RA of node:       004.6466 deg
Eccentricity:    0.0014376
Arg of perigee:   206.9398 deg
Mean anomaly:     153.1121 deg
Mean motion:   14.81748048 rev/day
Decay rate:       3.34e-06 rev/day^2
Epoch rev:           13525
Checksum:              316

Satellite: KKS-1
Catalog number: 33493
Epoch time:      10301.75172471
Element set:     985
Inclination:      098.1007 deg
RA of node:       062.5093 deg
Eccentricity:    0.0021083
Arg of perigee:   070.5071 deg
Mean anomaly:     289.8420 deg
Mean motion:   14.81170834 rev/day
Decay rate:       9.52e-06 rev/day^2
Epoch rev:            9525
Checksum:              285

Satellite: SOHLA-1
Catalog number: 33496
Epoch time:      10300.73359219
Element set:     240
Inclination:      098.0687 deg
RA of node:       048.1604 deg
Eccentricity:    0.0007031
Arg of perigee:   134.3738 deg
Mean anomaly:     225.8068 deg
Mean motion:   14.69527050 rev/day
Decay rate:        9.6e-07 rev/day^2
Epoch rev:            9434
Checksum:              292

Satellite: TISAT-1
Catalog number: 36799
Epoch time:      10301.70188725
Element set:     259
Inclination:      098.1338 deg
RA of node:       002.3570 deg
Eccentricity:    0.0014505
Arg of perigee:   307.8039 deg
Mean anomaly:     052.1857 deg
Mean motion:   14.80211629 rev/day
Decay rate:       6.31e-06 rev/day^2
Epoch rev:            1606
Checksum:              283

Satellite: STUDSAT
Catalog number: 36801
Epoch time:      10300.79422610
Element set:      83
Inclination:      098.1361 deg
RA of node:       001.3424 deg
Eccentricity:    0.0013334
Arg of perigee:   299.1348 deg
Mean anomaly:     060.8530 deg
Mean motion:   14.79751442 rev/day
Decay rate:      1.596e-05 rev/day^2
Epoch rev:            1592
Checksum:              268

/EX
SB KEPS @ AMSAT  $ORB10301.W
Orbital Elements  10301.WEATHER

HR AMSAT ORBITAL ELEMENTS FOR WEATHER SATELLITES
FROM WA5QGD FORT WORTH,TX October 28, 2010
BID: ORB10301.W
TO ALL RADIO AMATEURS BT

Satellite: NOAA-10
Catalog number: 16969
Epoch time:      10301.19533156
Element set:     255
Inclination:      098.6449 deg
RA of node:       328.8448 deg
Eccentricity:    0.0012052
Arg of perigee:   179.6802 deg
Mean anomaly:     180.4383 deg
Mean motion:   14.27431489 rev/day
Decay rate:       -1.3e-07 rev/day^2
Epoch rev:           25455
Checksum:              309

Satellite: NOAA-11
Catalog number: 19531
Epoch time:      10301.32459719
Element set:     263
Inclination:      098.7663 deg
RA of node:       028.0589 deg
Eccentricity:    0.0012033
Arg of perigee:   125.5519 deg
Mean anomaly:     234.6786 deg
Mean motion:   14.14938940 rev/day
Decay rate:      -1.77e-06 rev/day^2
Epoch rev:           13996
Checksum:              318

Satellite: NOAA-12
Catalog number: 21263
Epoch time:      10301.27793802
Element set:     758
Inclination:      098.7632 deg
RA of node:       314.4112 deg
Eccentricity:    0.0012900
Arg of perigee:   136.9840 deg
Mean anomaly:     223.2349 deg
Mean motion:   14.25662967 rev/day
Decay rate:        8.9e-07 rev/day^2
Epoch rev:            1136
Checksum:              286

